Date,TemperatureHighF,TemperatureAvgF,TemperatureLowF,DewpointHighF,DewpointAvgF,DewpointLowF,HumidityHigh,HumidityAvg,HumidityLow,PressureMaxIn,PressureMinIn,WindSpeedMaxMPH,WindSpeedAvgMPH,GustSpeedMaxMPH,PrecipitationSumIn
2013-10-1,78.3,69.1,61.8,63.8,61.0,58.2,91,76,53,29.79,29.64,17,4,17,0.00
2013-10-2,75.7,68.6,64.0,58.6,54.2,49.4,76,61,49,30.07,29.78,23,10,23,0.00
2013-10-3,72.7,65.6,59.7,50.6,46.9,43.4,61,51,39,30.26,30.07,26,11,26,0.00
2013-10-4,71.7,64.2,57.6,53.1,48.6,44.1,63,57,49,30.30,30.23,23,10,23,0.00
2013-10-5,64.8,62.2,59.0,60.4,55.9,51.6,92,81,63,30.25,30.08,20,6,20,1.33
2013-10-6,76.6,68.7,61.9,64.6,62.1,58.3,90,80,63,30.10,29.99,20,5,20,0.63
2013-10-7,78.3,68.7,62.9,65.2,62.1,60.1,91,80,58,30.13,30.02,15,3,15,0.06
2013-10-8,75.1,65.8,61.3,63.5,59.5,55.6,89,81,60,30.15,30.09,20,4,20,0.14
2013-10-9,72.6,65.2,60.3,62.6,58.8,55.5,90,80,60,30.12,30.03,18,4,18,0.21
2013-10-10,73.9,65.5,59.2,61.9,59.5,56.6,92,81,62,30.05,29.87,20,4,20,0.02
2013-10-11,74.1,66.9,62.7,66.3,62.9,59.7,92,87,72,30.06,29.86,20,3,20,0.25
2013-10-14,82.1,73.9,66.2,63.8,59.3,53.7,79,62,39,30.11,30.06,8,2,8,0.00
2013-10-15,75.0,67.2,60.6,63.8,59.2,55.9,87,76,56,30.11,29.97,12,2,12,0.00
2013-10-16,74.7,67.1,63.1,65.3,60.0,50.8,91,78,63,29.97,29.68,23,6,23,0.50
2013-10-17,74.8,65.0,58.6,54.2,49.1,46.1,71,57,37,30.02,29.86,15,4,15,0.00
2013-10-18,75.3,64.6,55.5,54.3,47.8,39.6,75,56,33,30.11,30.01,12,3,12,0.00
2013-10-19,77.0,65.5,55.4,59.0,52.6,45.8,80,65,35,30.27,30.11,17,2,17,0.00
2013-10-20,76.4,67.8,59.7,64.1,58.6,53.3,87,73,59,30.31,30.24,13,3,13,0.00
2013-10-21,77.4,67.7,60.2,63.6,60.4,57.3,91,79,57,30.28,30.21,12,2,12,0.00
2013-10-22,78.4,67.8,60.1,66.0,61.4,56.8,91,81,59,30.23,30.14,12,2,12,0.00
2013-10-23,78.0,67.5,62.1,65.9,62.5,59.3,93,84,63,30.20,30.11,13,2,13,0.00
2013-10-24,73.3,66.4,60.5,64.1,61.0,58.2,93,83,64,30.19,30.14,8,2,8,0.01
2013-10-25,78.3,68.7,61.7,64.5,60.8,57.3,89,77,53,30.19,30.13,15,2,15,0.00
2013-10-26,77.9,68.1,59.9,65.1,60.7,56.4,90,78,58,30.24,30.17,14,3,14,0.00
2013-10-27,73.6,66.1,61.6,64.3,61.3,58.6,91,85,67,30.26,30.19,13,2,13,0.00
2013-10-28,75.2,67.0,60.7,64.3,61.8,58.1,93,84,65,30.22,30.11,17,2,17,0.01
2013-10-29,74.4,66.6,61.3,64.3,61.3,58.7,93,84,69,30.11,29.98,13,2,13,0.00
2013-10-30,73.5,65.5,59.3,63.1,59.8,56.5,92,82,65,30.06,29.96,12,2,12,0.01
2013-10-31,78.1,68.8,60.7,58.6,56.7,53.8,88,67,45,30.12,30.05,12,4,12,0.00